Fall River Mills Past Weather

Last 30 Days

 
High: 65ºf @11:54 AM    Low: 34ºf @4:54 AM     Approx. Precipitation / Rain Total: in.
Time (PDT)Temp. (ºf)Humidity (%)Dew Point (ºf)Barometer (inHG)Wind Speed (mph)Wind DirectionWind Gust (mph)1hr. Precip / Rain Total (in.)Snow Depth
11:54 AM652427.33-2.61sse11.3--
9:54 AM554131.74---1.74--
8:54 AM456232.77---2.61--
7:54 AM347928.18-1.74ne3.48--
6:54 AM348229.09---3.48--
4:54 AM348028.49---3.48--
3:54 AM347727.56-0.87ne2.61--
2:54 AM367328.2-1.74ne2.61--
1:54 AM367227.86-1.74nne3.48--
12:54 AM377028.14-0.87ne4.34--
High: 72ºf @1:54 PM    Low: 30ºf @6:54 AM     Approx. Precipitation / Rain Total: in.
Time (PDT)Temp. (ºf)Humidity (%)Dew Point (ºf)Barometer (inHG)Wind Speed (mph)Wind DirectionWind Gust (mph)1hr. Precip / Rain Total (in.)Snow Depth
11:54 PM386828.39-1.74nne4.34--
10:54 PM416329.38-1.74ne4.34--
8:54 PM475933.42---3.48--
7:54 PM505835.81-0.87nne3.48--
6:54 PM564937.11-1.74ne3.48--
5:54 PM623131.02---6.08--
4:54 PM662529.17-1.74nnw5.21--
3:54 PM681822.92-1.74s6.08--
2:54 PM701723.18-1.74sse7.82--
1:54 PM721623.36-2.61se7.82--
12:54 PM701723.18-1.74sse6.95--
11:54 AM651921.74-0.87sw6.08--
9:54 AM563629.43-0.87n4.34--
8:54 AM435929.66---1.74--
6:54 AM307924.29-1.74nne4.34--
5:54 AM317624.34-1.74nne4.34--
4:54 AM307823.99-1.74nne3.48--
3:54 AM317423.7-1.74nne4.34--
2:54 AM327324.34-0.87n4.34--
1:54 AM346924.92-0.87nnw4.34--
12:54 AM337024.3---3.48--
High: 69ºf @2:54 PM    Low: 26ºf @7:54 AM     Approx. Precipitation / Rain Total: in.
Time (PDT)Temp. (ºf)Humidity (%)Dew Point (ºf)Barometer (inHG)Wind Speed (mph)Wind DirectionWind Gust (mph)1hr. Precip / Rain Total (in.)Snow Depth
11:54 PM346824.57-1.74n2.61--
10:54 PM356725.17-0.87n3.48--
8:54 PM426029.13-1.74nne2.61--
7:54 PM465731.63-0.87nne3.48--
6:54 PM543627.66---6.95--
5:54 PM612625.87-1.74nw7.82--
4:54 PM652225.23-2.61nw7.82--
3:54 PM661517.04-0.87sw6.08--
2:54 PM691214.29-0.87sse5.21--
1:54 PM691214.29-1.74sse5.21--
12:54 PM661719.95---4.34--
11:54 AM612019.65-0.87wsw4.34--
10:54 AM581915.99-0.87se3.48--
9:54 AM523021.54---2.61--
8:54 AM394921.48-1.74ne3.48--
7:54 AM267318.55-0.87n3.48--
6:54 AM267117.91-0.87n3.48--
5:54 AM276717.53-1.74nne3.48--
4:54 AM276717.53-1.74nne3.48--
High: 60ºf @1:54 PM    Low: 27ºf @1:54 AM     Approx. Precipitation / Rain Total: in.
Time (PDT)Temp. (ºf)Humidity (%)Dew Point (ºf)Barometer (inHG)Wind Speed (mph)Wind DirectionWind Gust (mph)1hr. Precip / Rain Total (in.)Snow Depth
1:54 PM601715.08-0.87wnw7.82--
12:54 PM561914.34-1.74w6.08--
11:54 AM552317.9-1.74w6.95--
10:54 AM502717.35-2.61nw7.82--
9:54 AM462915.55-1.74n5.21--
8:54 AM374517.66-0.87ese4.34--
7:54 AM276316.11-2.61ne4.34--
6:54 AM276516.83---4.34--
5:54 AM305415.39---6.08--
4:54 AM324814.56-1.74ne6.08--
2:54 AM295314.04-2.61ene6.08--
1:54 AM276115.37-2.61ene4.34--
12:54 AM285815.16-1.74ne6.08--
High: 53ºf @3:54 PM    Low: 28ºf @11:54 PM     Approx. Precipitation / Rain Total: in.
Time (PDT)Temp. (ºf)Humidity (%)Dew Point (ºf)Barometer (inHG)Wind Speed (mph)Wind DirectionWind Gust (mph)1hr. Precip / Rain Total (in.)Snow Depth
11:54 PM286015.93-1.74nne4.34--
9:54 PM325618.1-1.74ene5.21--
8:54 PM355520.49-3.48ne6.08--
7:54 PM394720.5-1.74ene4.34--
6:54 PM433718.53---7.82--
5:54 PM512415.5-1.74nw8.69--
4:54 PM522416.34-2.61wnw10.43--
3:54 PM532518.14-3.48w13.03--
2:54 PM532619.05-4.34nw14.77--
1:54 PM533022.41-4.34nnw13.03--
12:54 PM513423.63-3.48nnw16.51--
11:54 AM494025.74-4.34n11.3--
10:54 AM464827.42-3.48nnw10.43--
8:54 AM386627.67-3.48n11.3--
7:54 AM347727.56-2.61nne9.56--
6:54 AM348028.49-2.61ne11.3--
5:54 AM357728.53-2.61n13.03--
4:54 AM367729.5-3.48nw13.03--
3:54 AM387330.13-4.34wnw14.77--
2:54 AM416429.77-3.48nw16.51--
1:54 AM426229.94-5.21nw17.38--
12:54 AM436230.88-4.34wnw19.12--
High: 71ºf @2:54 PM    Low: 40ºf @2:54 AM     Approx. Precipitation / Rain Total: in.
Time (PDT)Temp. (ºf)Humidity (%)Dew Point (ºf)Barometer (inHG)Wind Speed (mph)Wind DirectionWind Gust (mph)1hr. Precip / Rain Total (in.)Snow Depth
10:54 PM466534.9-4.34nw12.17--
9:54 PM476535.85-2.61wnw11.3--
8:54 PM515535.41-2.61wnw13.9--
7:54 PM574032.92-2.61nnw10.43--
5:54 PM662932.83-2.61wnw9.56--
3:54 PM703137.97-2.61wnw7.82--
2:54 PM713441.21-2.61nw10.43--
1:54 PM674041.87-4.34nw13.9--
12:54 PM713642.69-3.48nw9.56--
11:54 AM644441.65-3.48nw11.3--
9:54 AM585039.47-3.48nw10.43--
8:54 AM545538.2-1.74nw10.43--
7:54 AM486235.61-1.74sse8.69--
6:54 AM466735.67-1.74nnw7.82--
5:54 AM418135.62-1.74ne4.34--
3:54 AM417634.02-2.61ne5.21--
2:54 AM408034.34-0.87n5.21--
12:54 AM408134.65-1.74n4.34--
High: 75ºf @3:54 PM    Low: 36ºf @6:54 AM     Approx. Precipitation / Rain Total: in.
Time (PDT)Temp. (ºf)Humidity (%)Dew Point (ºf)Barometer (inHG)Wind Speed (mph)Wind DirectionWind Gust (mph)1hr. Precip / Rain Total (in.)Snow Depth
11:54 PM417935-0.87nnw3.48--
10:54 PM437535.63-1.74nne3.48--
9:54 PM467137.13-1.74nne3.48--
7:54 PM537244.22---3.48--
6:54 PM606046.07-1.74ne2.61--
5:54 PM693338.69-0.87wnw6.08--
4:54 PM732434.07-1.74wnw6.95--
3:54 PM751422.57-0.87wsw5.21--
1:54 PM742838.81-3.48wnw9.56--
12:54 PM752839.67-1.74wnw6.08--
11:54 AM713038-1.74wnw6.95--
10:54 AM673739.86-2.61wnw7.82--
6:54 AM368732.51-1.74nne4.34--
5:54 AM378833.78-0.87n4.34--
4:54 AM369033.36-1.74n3.48--
3:54 AM378833.78-1.74n3.48--
2:54 AM378733.5-0.87-3.48--
1:54 AM388533.9-1.74nne4.34--
12:54 AM407934.02-1.74ne3.48--
High: 73ºf @2:54 PM    Low: 31ºf @6:54 AM     Approx. Precipitation / Rain Total: in.
Time (PDT)Temp. (ºf)Humidity (%)Dew Point (ºf)Barometer (inHG)Wind Speed (mph)Wind DirectionWind Gust (mph)1hr. Precip / Rain Total (in.)Snow Depth
11:54 PM408234.96---3.48--
10:54 PM418436.54-0.87nne2.61--
9:54 PM447937.91-0.87nnw2.61--
8:54 PM477639.83-1.74n3.48--
7:54 PM526841.77-1.74ne4.34--
6:54 PM595442.38-0.87nne5.21--
5:54 PM663839.66-1.74nw5.21--
4:54 PM693036.27-1.74wnw5.21--
3:54 PM703037.13-2.61nw6.08--
2:54 PM732535.09-0.87w5.21--
1:54 PM712735.33-1.74nnw5.21--
12:54 PM692733.62-1.74wsw6.08--
11:54 AM653234.42-1.74nw6.95--
10:54 AM623433.31-0.87n5.21--
9:54 AM564132.64-1.74nw6.08--
7:54 AM329129.68-1.74nne4.34--
6:54 AM319228.95-1.74nne3.48--
5:54 AM319429.48-0.87nne4.34--
3:54 AM329129.68-0.87nne3.48--
12:54 AM388233-0.87n4.34--
High: 63ºf @2:54 PM    Low: 32ºf @3:54 AM     Approx. Precipitation / Rain Total: in.
Time (PDT)Temp. (ºf)Humidity (%)Dew Point (ºf)Barometer (inHG)Wind Speed (mph)Wind DirectionWind Gust (mph)1hr. Precip / Rain Total (in.)Snow Depth
11:54 PM398133.67-1.74ne4.34--
10:54 PM407934.02-0.87nne3.48--
9:54 PM456835.08-1.74ne4.34--
8:54 PM466635.29-2.61ene5.21--
4:54 PM613230.93-1.74nw11.3--
3:54 PM613230.93-4.34nnw12.17--
2:54 PM633232.68-3.48n13.03--
1:54 PM623231.8-4.34n13.03--
12:54 PM613734.54-3.48n11.3--
11:54 AM574334.73-3.48n13.03--
10:54 AM574736.97-2.61n7.82--
9:54 AM506137.09-1.74wnw6.08--
8:54 AM466836.04-1.74nw6.95--
7:54 AM388734.48-0.87nnw5.21--
6:54 AM329330.21-2.61ne4.34--
4:54 AM339230.93-2.61ne4.34--
3:54 AM329330.21-1.74ne4.34--
2:54 AM339130.67-1.74ne5.21--
12:54 AM358831.81-0.87ene4.34--
High: 58ºf @2:54 PM    Low: 35ºf @6:54 AM     Approx. Precipitation / Rain Total: in.
Time (PDT)Temp. (ºf)Humidity (%)Dew Point (ºf)Barometer (inHG)Wind Speed (mph)Wind DirectionWind Gust (mph)1hr. Precip / Rain Total (in.)Snow Depth
11:54 PM368832.8-0.87ne3.48--
10:54 PM378432.62-1.74ne4.34--
9:54 PM388132.7-1.74ne3.48--
8:54 PM407733.38-0.87nne3.48--
7:54 PM446533-1.74ne5.21--
6:54 PM495232.15-0.87wnw7.82--
5:54 PM544030.23-2.61nw9.56--
4:54 PM553729.21-3.48nnw10.43--
3:54 PM573630.31-2.61nw10.43--
2:54 PM583530.51-2.61wnw11.3--
1:54 PM583631.2-3.48n11.3--
12:54 PM573831.65-2.61nw8.69--
11:54 AM554433.49-3.48nw10.43--
10:54 AM534733.32-2.61n10.43--
8:54 AM475933.42-2.61nne7.82--
7:54 AM368732.51-0.87nne4.34--
6:54 AM358932.09-0.87nne6.08--
5:54 AM368632.23-0.87nw5.21--
4:54 AM378432.62-1.74wnw7.82--
2:54 AM417834.68-0.87nw13.9--
1:54 AM417634.02-0.87wnw10.43--
12:54 AM446533-2.61nw11.3--
High: 60ºf @12:54 PM    Low: 40ºf @1:54 AM     Approx. Precipitation / Rain Total: in.
Time (PDT)Temp. (ºf)Humidity (%)Dew Point (ºf)Barometer (inHG)Wind Speed (mph)Wind DirectionWind Gust (mph)1hr. Precip / Rain Total (in.)Snow Depth
11:54 PM456734.71-3.48nnw12.17--
10:54 PM446934.49-1.74nnw7.82--
9:54 PM475833-2.61nnw10.43--
8:54 PM485833.94-2.61nw9.56--
7:54 PM505534.48-0.87nw9.56--
6:54 PM525134.44-3.48nw13.03--
5:54 PM544834.76-2.61n8.69--
4:54 PM565439.59-1.74nnw6.95--
3:54 PM575038.55-1.74nnw7.82--
2:54 PM594939.87-2.61wnw10.43--
1:54 PM594839.34-2.61wnw8.69--
12:54 PM604639.16-2.61wnw9.56--
11:54 AM594738.8-2.61wnw8.69--
10:54 AM565339.11-1.74nw8.69--
9:54 AM536039.49-2.61nnw6.95--
8:54 AM496838.9-1.74ne5.21--
7:54 AM428036.29-0.87ne5.21--
6:54 AM418235.93-0.87nw4.34--
5:54 AM428437.52---2.61--
4:54 AM457938.89-0.87ene6.08--
3:54 AM438739.4-0.87ne1.74--
2:54 AM418536.84---1.74--
1:54 AM408736.45---3.48--
High: 65ºf @1:54 PM    Low: 28ºf @6:54 AM     Approx. Precipitation / Rain Total: in.
Time (PDT)Temp. (ºf)Humidity (%)Dew Point (ºf)Barometer (inHG)Wind Speed (mph)Wind DirectionWind Gust (mph)1hr. Precip / Rain Total (in.)Snow Depth
1:54 PM652831.1-1.74s5.21--
12:54 PM642224.4-1.74sse6.08--
11:54 AM622929.38-1.74sse6.08--
10:54 AM573831.65-0.87ese4.34--
9:54 AM515033.02---4.34--
8:54 AM427534.66---3.48--
7:54 AM319429.48-0.87nnw3.48--
6:54 AM289627.01---3.48--
5:54 AM299628.01---3.48--
3:54 AM309629-0.87n3.48--
2:54 AM309528.74---3.48--
1:54 AM319529.74---3.48--
High: 59ºf @2:54 PM    Low: 29ºf @6:54 AM     Approx. Precipitation / Rain Total: in.
Time (PDT)Temp. (ºf)Humidity (%)Dew Point (ºf)Barometer (inHG)Wind Speed (mph)Wind DirectionWind Gust (mph)1hr. Precip / Rain Total (in.)Snow Depth
9:54 PM368632.23-1.74nne4.34--
8:54 PM398534.88-0.87ne3.48--
7:54 PM437234.6---3.48--
6:54 PM485733.5-0.87nw7.82--
3:54 PM564132.64-2.61wnw8.69--
2:54 PM593833.43-1.74wnw7.82--
1:54 PM584033.82-2.61nnw7.82--
12:54 PM554332.92-0.87w6.95--
10:54 AM505434.02-1.74nnw7.82--
9:54 AM466334.12-2.61nw6.95--
8:54 AM408435.56---2.61--
7:54 AM319630-0.87ne2.61--
6:54 AM299628.01-0.87ne3.48--
5:54 AM319630-0.87ne2.61--
4:54 AM329731.25---4.34--
3:54 AM299728.26-0.87ene3.48--
2:54 AM309729.25-1.74nne3.48--
12:54 AM329731.25-1.74ne3.48--
High: 54ºf @2:54 PM    Low: 33ºf @10:54 PM     Approx. Precipitation / Rain Total: in.
Time (PDT)Temp. (ºf)Humidity (%)Dew Point (ºf)Barometer (inHG)Wind Speed (mph)Wind DirectionWind Gust (mph)1hr. Precip / Rain Total (in.)Snow Depth
10:54 PM339531.73-0.87nne3.48--
9:54 PM369334.18-0.87ene2.61--
8:54 PM379435.44-0.87ne3.48--
7:54 PM399136.6-0.87ene1.74--
6:54 PM447436.25-0.87se6.08--
5:54 PM476535.85-1.74sse7.82--
4:54 PM486336.01-1.74e7.82--
3:54 PM525134.44-1.74wsw9.56--
2:54 PM544734.23-1.74wsw7.82--
1:54 PM515133.51-0.87ssw6.08--
12:54 PM495935.3-1.74nnw4.34--
11:54 AM476736.62-0.87wnw5.21--
10:54 AM448238.86-0.87nw6.08--
9:54 AM428537.82---2.61--
8:54 AM389837.49---2.61--
7:54 AM369935.75---1.74--
6:54 AM359934.75---1.74--
5:54 AM359934.75---1.74--
4:54 AM359834.49---1.74--
1:54 AM369835.49---0.87--
12:54 AM359834.49---2.61--
High: 50ºf @10:54 AM    Low: 35ºf @5:54 AM     Approx. Precipitation / Rain Total: in.
Time (PDT)Temp. (ºf)Humidity (%)Dew Point (ºf)Barometer (inHG)Wind Speed (mph)Wind DirectionWind Gust (mph)1hr. Precip / Rain Total (in.)Snow Depth
11:54 PM359834.49---1.74--
10:54 PM359834.49---1.74--
9:54 PM369735.23---1.74--
8:54 PM369634.97---2.61--
7:54 PM369735.23---2.61--
6:54 PM379736.23---5.21--
5:54 PM389436.43---5.21--
4:54 PM389135.61-1.74sse7.82--
3:54 PM418637.14-1.74se6.95--
2:54 PM437936.94-0.87w9.56--
1:54 PM484929.76-3.48se10.43--
12:54 PM475129.82-3.48se10.43--
11:54 AM484829.26-3.48se8.69--
10:54 AM504529.5-1.74e5.21--
9:54 AM456533.95-0.87w5.21--
8:54 AM426932.58-0.87wnw5.21--
7:54 AM388433.6---2.61--
6:54 AM368832.8-0.87nw2.61--
5:54 AM359032.37---5.21--
4:54 AM387330.13-1.74n9.56--
3:54 AM387530.79-2.61n12.17--
2:54 AM397130.41-3.48n12.17--
1:54 AM406830.3-3.48n10.43--
12:54 AM397732.41-3.48n9.56--
High: 56ºf @1:54 PM    Low: 38ºf @7:54 PM     Approx. Precipitation / Rain Total: in.
Time (PDT)Temp. (ºf)Humidity (%)Dew Point (ºf)Barometer (inHG)Wind Speed (mph)Wind DirectionWind Gust (mph)1hr. Precip / Rain Total (in.)Snow Depth
11:54 PM397732.41-3.48n15.64--
10:54 PM397732.41-3.48n12.17--
9:54 PM398033.36-3.48n10.43--
8:54 PM398133.67-3.48nw13.9--
7:54 PM388734.48-4.34nnw13.9--
6:54 PM388935.05-4.34nnw15.64--
5:54 PM436933.54-3.48n13.9--
4:54 PM437635.96-3.48n11.3--
3:54 PM399036.32-3.48n16.51--
2:54 PM475732.57-6.08nnw17.38--
1:54 PM564132.64-3.48nnw13.03--
12:54 PM544332.01-4.34n13.03--
11:54 AM535034.86-2.61nnw15.64--
10:54 AM505735.37-2.61n14.77--
9:54 AM467438.18-3.48nw14.77--
8:54 AM418637.14-3.48nnw12.17--
7:54 AM428939-2.61nw13.03--
6:54 AM428537.82-3.48nw16.51--
5:54 AM446733.76-3.48nnw13.03--
4:54 AM446733.76-3.48nnw12.17--
3:54 AM447034.85-2.61nw10.43--
2:54 AM437334.95-3.48nw13.03--
1:54 AM447135.21-4.34nw13.9--
12:54 AM457035.81-3.48nnw14.77--
High: 69ºf @3:54 PM    Low: 46ºf @6:54 AM     Approx. Precipitation / Rain Total: in.
Time (PDT)Temp. (ºf)Humidity (%)Dew Point (ºf)Barometer (inHG)Wind Speed (mph)Wind DirectionWind Gust (mph)1hr. Precip / Rain Total (in.)Snow Depth
11:54 PM476134.26-3.48nw13.9--
10:54 PM505032.1-2.61nw13.03--
9:54 PM524732.4-3.48nw9.56--
8:54 PM554031.13-3.48nw13.03--
7:54 PM573529.62-4.34nw9.56--
6:54 PM613835.21-2.61nw12.17--
5:54 PM644341.05-2.61nw10.43--
4:54 PM673840.55-2.61wnw10.43--
3:54 PM693640.93-3.48n13.03--
2:54 PM694043.66-4.34nnw13.03--
1:54 PM694647.35-2.61nw10.43--
12:54 PM645949.38-3.48nw13.03--
11:54 AM645949.38-4.34nw10.43--
10:54 AM665850.79-3.48nw9.56--
9:54 AM656251.66-0.87nne6.08--
8:54 AM587249.02---3.48--
7:54 AM498745.3-1.74ne3.48--
6:54 AM469143.52-1.74ne3.48--
5:54 AM488944.91-0.87nne1.74--
4:54 AM537545.29-0.87ne4.34--
3:54 AM556844.63-2.61e5.21--
2:54 AM547245.18-0.87e5.21--
1:54 AM537645.64-1.74ene4.34--
12:54 AM557045.4-2.61ne5.21--
High: 81ºf @2:54 PM    Low: 47ºf @6:54 AM     Approx. Precipitation / Rain Total: in.
Time (PDT)Temp. (ºf)Humidity (%)Dew Point (ºf)Barometer (inHG)Wind Speed (mph)Wind DirectionWind Gust (mph)1hr. Precip / Rain Total (in.)Snow Depth
10:54 PM596346.42-2.61nne6.08--
9:54 PM645346.52-0.87se8.69--
8:54 PM684445.26-2.61nw7.82--
7:54 PM713642.69-1.74nnw7.82--
6:54 PM733543.72-2.61nw8.69--
4:54 PM793145.76-2.61wnw9.56--
3:54 PM802944.86-2.61wnw10.43--
2:54 PM812541.84-3.48wnw12.17--
1:54 PM812440.78-3.48nnw14.77--
12:54 PM802843.94-2.61wnw8.69--
11:54 AM763344.8-2.61nw9.56--
10:54 AM714045.45-2.61wnw8.69--
9:54 AM674343.76-3.48nw9.56--
8:54 AM615745.65-0.87n6.08--
6:54 AM478542.73-2.61ne5.21--
5:54 AM488443.4-2.61ne5.21--
4:54 AM488543.71-2.61ne4.34--
3:54 AM508244.72-2.61ne4.34--
2:54 AM518145.38-0.87se5.21--
1:54 AM517844.38-1.74nne4.34--
12:54 AM528347-0.87ene3.48--
High: 77ºf @1:54 PM    Low: 54ºf @11:54 PM     Approx. Precipitation / Rain Total: in.
Time (PDT)Temp. (ºf)Humidity (%)Dew Point (ºf)Barometer (inHG)Wind Speed (mph)Wind DirectionWind Gust (mph)1hr. Precip / Rain Total (in.)Snow Depth
11:54 PM548248.63---2.61--
10:54 PM557948.61-0.87ne3.48--
9:54 PM567347.47-1.74ene4.34--
8:54 PM606447.78-0.87ene5.21--
7:54 PM655849.86-3.48ene7.82--
6:54 PM713944.78-0.87nnw6.08--
5:54 PM753343.93-1.74nw9.56--
4:54 PM763344.8-3.48nw11.3--
3:54 PM763647.1-4.34nw14.77--
2:54 PM773748.71-3.48nw13.03--
1:54 PM774151.48-3.48nw10.43--
12:54 PM754350.97-3.48nw10.43--
11:54 AM724951.78-3.48n12.17--
10:54 AM695652.64-4.34n12.17--
9:54 AM666654.31-3.48n12.17--
8:54 AM627654.34-4.34n13.9--
7:54 AM598454.17-3.48ne11.3--
5:54 AM588754.15-3.48e11.3--
4:54 AM588754.15-2.61ne7.82--
3:54 AM598353.84-1.74n9.56--
2:54 AM627654.34-4.34ne13.9--
1:54 AM627754.7-3.48n10.43--
12:54 AM637554.95-4.34ene11.3--
High: 78ºf @1:54 PM    Low: 50ºf @4:54 AM     Approx. Precipitation / Rain Total: in.
Time (PDT)Temp. (ºf)Humidity (%)Dew Point (ºf)Barometer (inHG)Wind Speed (mph)Wind DirectionWind Gust (mph)1hr. Precip / Rain Total (in.)Snow Depth
11:54 PM637354.2-3.48e8.69--
10:54 PM656753.77-2.61ene10.43--
9:54 PM656552.94-0.87sw6.95--
8:54 PM685852.66-1.74nnw13.03--
7:54 PM705352.07-0.87wnw9.56--
6:54 PM734650.98-4.34nw17.38--
5:54 PM764351.87-3.48nw13.9--
4:54 PM764452.49-3.48nnw11.3--
3:54 PM764553.11-3.48n10.43--
2:54 PM774352.77-4.34n12.17--
1:54 PM784454.3-2.61nnw12.17--
12:54 PM754753.38-4.34n14.77--
11:54 AM734751.56-3.48n12.17--
10:54 AM694949.03-3.48-13.9--
9:54 AM675349.3-3.48nne9.56--
8:54 AM616147.45-3.48nnw12.17--
7:54 AM577147.69-1.74n8.69--
6:54 AM538047-0.87nw7.82--
5:54 AM557446.87-2.61n11.3--
4:54 AM508846.59---3.48--
3:54 AM538047-0.87nnw8.69--
2:54 AM538247.65---3.48--
1:54 AM528748.25---3.48--
12:54 AM557747.92---7.82--
High: 68ºf @1:54 PM    Low: 47ºf @6:54 AM     Approx. Precipitation / Rain Total: in.
Time (PDT)Temp. (ºf)Humidity (%)Dew Point (ºf)Barometer (inHG)Wind Speed (mph)Wind DirectionWind Gust (mph)1hr. Precip / Rain Total (in.)Snow Depth
11:54 PM586947.89-2.61nne8.69--
10:54 PM586546.3-1.74n6.08--
8:54 PM557346.5---3.48--
7:54 PM587249.02-0.87ne6.08--
6:54 PM635345.59-1.74n7.82--
5:54 PM665046.82-2.61nw8.69--
4:54 PM665147.35-3.48nw12.17--
3:54 PM665448.87-4.34nw13.03--
2:54 PM675449.8-3.48n12.17--
1:54 PM685249.71-2.61n8.69--
12:54 PM655648.91-2.61n9.56--
11:54 AM635948.44-2.61n10.43--
10:54 AM606347.37-3.48n10.43--
9:54 AM576946.93-2.61nnw8.69--
8:54 AM547646.61-2.61n9.56--
7:54 AM498845.6-0.87nnw6.08--
6:54 AM478943.93-0.87nnw9.56--
5:54 AM498645-2.61nnw6.95--
4:54 AM498845.6-1.74nnw6.95--
3:54 AM508545.67-1.74n11.3--
2:54 AM518646.96-2.61n12.17--
1:54 AM518646.96-4.34n11.3--
12:54 AM509147.48-1.74nnw9.56--
High: 66ºf @12:54 PM    Low: 44ºf @2:54 AM     Approx. Precipitation / Rain Total: in.
Time (PDT)Temp. (ºf)Humidity (%)Dew Point (ºf)Barometer (inHG)Wind Speed (mph)Wind DirectionWind Gust (mph)1hr. Precip / Rain Total (in.)Snow Depth
11:54 PM509047.18-2.61nw10.43--
10:54 PM519349.05-0.87ese6.95--
9:54 PM509749.18-0.87nnw4.34--
7:54 PM549552.6---3.48--
6:54 PM588854.46-0.87nnw5.21--
5:54 PM617854.09---5.21--
4:54 PM608555.47-0.87nw3.48--
3:54 PM636551.04---5.21--
2:54 PM608053.81---6.95--
1:54 PM636048.89-2.61e12.17--
12:54 PM665046.82-5.21se11.3--
11:54 AM626851.31---2.61--
10:54 AM597751.8-0.87wsw5.21--
9:54 AM558349.93-1.74sse4.34--
8:54 AM538548.61-0.87ene3.48--
7:54 AM469544.65-0.87nnw3.48--
6:54 AM449743.2-0.87ene3.48--
5:54 AM449843.47-0.87nne2.61--
4:54 AM449642.93---2.61--
3:54 AM449743.2-1.74nne3.48--
2:54 AM449743.2---2.61--
1:54 AM459543.65-0.87n4.34--
12:54 AM479345.08-1.74ne3.48--
High: 72ºf @2:54 PM    Low: 40ºf @6:54 AM     Approx. Precipitation / Rain Total: in.
Time (PDT)Temp. (ºf)Humidity (%)Dew Point (ºf)Barometer (inHG)Wind Speed (mph)Wind DirectionWind Gust (mph)1hr. Precip / Rain Total (in.)Snow Depth
11:54 PM479545.64---2.61--
10:54 PM498845.6-0.87n3.48--
9:54 PM518947.87-1.74nne3.48--
8:54 PM548148.3-1.74nne4.34--
7:54 PM596145.57-0.87ne4.34--
6:54 PM645044.98-1.74nw7.82--
5:54 PM684244.04-3.48n11.3--
4:54 PM694546.76-3.48nw11.3--
3:54 PM704346.46-2.61wnw11.3--
2:54 PM724147-1.74w8.69--
1:54 PM724247.64-0.87w5.21--
12:54 PM704346.46-0.87ssw6.95--
11:54 AM684747.01-0.87wsw5.21--
10:54 AM655146.42-0.87e3.48--
9:54 AM606849.41---3.48--
8:54 AM537846.33-0.87e3.48--
7:54 AM459042.25-0.87ene3.48--
6:54 AM409739.22---4.34--
5:54 AM409638.95-1.74ne4.34--
4:54 AM419539.68-1.74ne3.48--
3:54 AM429640.94-1.74ne3.48--
2:54 AM439541.67-0.87e3.48--
1:54 AM449442.39-0.87ene3.48--
12:54 AM459343.1---2.61--
High: 65ºf @2:54 PM    Low: 47ºf @11:54 PM     Approx. Precipitation / Rain Total: in.
Time (PDT)Temp. (ºf)Humidity (%)Dew Point (ºf)Barometer (inHG)Wind Speed (mph)Wind DirectionWind Gust (mph)1hr. Precip / Rain Total (in.)Snow Depth
11:54 PM478943.93---2.61--
10:54 PM498344.06-0.87e3.48--
9:54 PM546944.06-2.61nne11.3--
7:54 PM566444-2.61nw9.56--
6:54 PM605443.3-3.48nw11.3--
5:54 PM634843-3.48nnw13.9--
4:54 PM644944.45-5.21nw13.9--
3:54 PM645044.98-3.48nnw14.77--
2:54 PM654643.71-3.48nnw13.03--
1:54 PM654744.27-3.48nnw15.64--
12:54 PM635044.06-3.48nnw12.17--
11:54 AM615544.71-3.48nne10.43--
10:54 AM566444-3.48n10.43--
9:54 AM576545.35-2.61n9.56--
8:54 AM527544.32-3.48nne9.56--
High: 60ºf @2:54 PM    Low: 45ºf @12:54 AM     Approx. Precipitation / Rain Total: in.
Time (PDT)Temp. (ºf)Humidity (%)Dew Point (ºf)Barometer (inHG)Wind Speed (mph)Wind DirectionWind Gust (mph)1hr. Precip / Rain Total (in.)Snow Depth
2:54 PM605744.72-4.34nw13.9--
1:54 PM605845.18-5.21nw14.77--
12:54 PM586646.7-3.48nw14.77--
11:54 AM547646.61-4.34nw12.17--
9:54 AM489346.07-2.61nw15.64--
8:54 AM489446.36-3.48nw13.9--
7:54 AM479545.64-2.61nw12.17--
6:54 AM479345.08-4.34n13.9--
5:54 AM479445.36-2.61n9.56--
3:54 AM469143.52-2.61nw11.3--
2:54 AM469945.73---3.48--
1:54 AM469945.73---2.61--
12:54 AM459944.74---1.74--
High: 50ºf @6:54 PM    Low: 45ºf @9:54 PM     Approx. Precipitation / Rain Total: in.
Time (PDT)Temp. (ºf)Humidity (%)Dew Point (ºf)Barometer (inHG)Wind Speed (mph)Wind DirectionWind Gust (mph)1hr. Precip / Rain Total (in.)Snow Depth
10:54 PM459844.47---1.74--
9:54 PM459844.47---2.61--
8:54 PM469745.2---3.48--
7:54 PM489847.46---2.61--
6:54 PM509648.9---1.74--
Past Weather Disclaimer Note regarding "Approx. Precipitation / Rain Total"

Currently

Fair 65°F
29.92in
Barometer
22%
Humidity
mph
Wind
Fair

Past Weather Nearby

More Local Information

Bookmark and Share

Go Ad Free - Become a Member